Time,TemperatureF,DewpointF,PressureIn,WindDirection,WindDirectionDegrees,WindSpeedMPH,WindSpeedGustMPH,Humidity,HourlyPrecipIn,Conditions,Clouds,dailyrainin,SoftwareType,DateUTC
2013-08-23 00:01:00,73.6,71.8,29.99,West,277,0.0,0.0,94,0.00,CLR,,0.00,WeatherDisplay:10.37,2013-08-23 05:01:00,
2013-08-23 00:06:00,73.5,71.7,29.99,West,277,0.0,0.0,94,0.00,CLR,,0.00,WeatherDisplay:10.37,2013-08-23 05:06:00,
2013-08-23 00:11:00,73.5,71.7,29.99,West,277,0.0,0.0,94,0.00,CLR,,0.00,WeatherDisplay:10.37,2013-08-23 05:11:00,
2013-08-23 00:16:00,73.4,71.6,29.99,West,277,0.0,0.0,94,0.00,CLR,,0.00,WeatherDisplay:10.37,2013-08-23 05:16:00,
2013-08-23 00:21:00,73.3,71.5,29.99,West,277,0.0,0.0,94,0.00,CLR,,0.00,WeatherDisplay:10.37,2013-08-23 05:21:00,
2013-08-23 00:26:00,73.2,71.4,29.99,West,277,0.0,0.0,94,0.00,CLR,,0.00,WeatherDisplay:10.37,2013-08-23 05:26:00,
2013-08-23 00:31:00,73.1,71.3,29.99,West,277,0.0,0.0,94,0.00,CLR,,0.00,WeatherDisplay:10.37,2013-08-23 05:31:00,
2013-08-23 00:36:00,73.1,71.3,29.99,West,277,0.0,0.0,94,0.00,CLR,,0.00,WeatherDisplay:10.37,2013-08-23 05:36:00,
2013-08-23 00:41:00,73.1,71.3,29.99,West,277,0.0,0.0,94,0.00,CLR,,0.00,WeatherDisplay:10.37,2013-08-23 05:41:00,
2013-08-23 00:46:00,73.1,71.3,29.99,West,277,0.0,0.0,94,0.00,CLR,,0.00,WeatherDisplay:10.37,2013-08-23 05:46:00,
2013-08-23 00:51:00,73.0,71.2,29.99,West,277,0.0,0.0,94,0.00,CLR,,0.00,WeatherDisplay:10.37,2013-08-23 05:51:00,
2013-08-23 00:56:00,72.9,71.1,29.99,West,277,0.0,0.0,94,0.00,CLR,,0.00,WeatherDisplay:10.37,2013-08-23 05:56:00,
2013-08-23 01:01:00,72.8,71.0,29.99,West,277,0.0,0.0,94,0.00,CLR,,0.00,WeatherDisplay:10.37,2013-08-23 06:01:00,
2013-08-23 01:06:00,72.8,71.0,29.99,West,277,0.0,0.0,94,0.00,CLR,,0.00,WeatherDisplay:10.37,2013-08-23 06:06:00,
2013-08-23 01:11:00,72.7,70.9,29.98,West,277,0.0,0.0,94,0.00,CLR,,0.00,WeatherDisplay:10.37,2013-08-23 06:11:00,
2013-08-23 01:16:00,72.7,70.9,29.98,West,277,0.0,0.0,94,0.00,CLR,,0.00,WeatherDisplay:10.37,2013-08-23 06:16:00,
2013-08-23 01:22:00,72.6,70.8,29.98,West,277,0.0,0.0,94,0.00,CLR,,0.00,WeatherDisplay:10.37,2013-08-23 06:22:00,
2013-08-23 01:27:00,72.5,70.7,29.98,West,277,0.0,0.0,94,0.00,CLR,,0.00,WeatherDisplay:10.37,2013-08-23 06:27:00,
2013-08-23 01:32:00,72.5,71.0,29.98,West,277,0.0,0.0,95,0.00,CLR,,0.00,WeatherDisplay:10.37,2013-08-23 06:32:00,
2013-08-23 01:37:00,72.4,70.6,29.98,West,277,0.0,0.0,94,0.00,CLR,,0.00,WeatherDisplay:10.37,2013-08-23 06:37:00,
2013-08-23 01:42:00,72.2,70.7,29.98,West,277,0.0,0.0,95,0.00,CLR,,0.00,WeatherDisplay:10.37,2013-08-23 06:42:00,
2013-08-23 01:47:00,72.2,70.7,29.97,West,277,0.0,0.0,95,0.00,CLR,,0.00,WeatherDisplay:10.37,2013-08-23 06:47:00,
2013-08-23 01:52:00,72.2,70.7,29.97,West,277,0.0,0.0,95,0.00,CLR,,0.00,WeatherDisplay:10.37,2013-08-23 06:52:00,
2013-08-23 01:57:00,72.3,70.8,29.97,West,277,0.0,0.0,95,0.00,CLR,,0.00,WeatherDisplay:10.37,2013-08-23 06:57:00,
2013-08-23 02:02:00,72.2,70.7,29.97,West,277,0.0,0.0,95,0.00,CLR,,0.00,WeatherDisplay:10.37,2013-08-23 07:02:00,
2013-08-23 02:07:00,72.2,70.7,29.97,West,277,0.0,0.0,95,0.00,CLR,,0.00,WeatherDisplay:10.37,2013-08-23 07:07:00,
2013-08-23 02:12:00,72.2,70.7,29.97,West,277,0.0,0.0,95,0.00,CLR,,0.00,WeatherDisplay:10.37,2013-08-23 07:12:00,
2013-08-23 02:17:00,72.2,70.7,29.97,West,277,0.0,0.0,95,0.00,CLR,,0.00,WeatherDisplay:10.37,2013-08-23 07:17:00,
2013-08-23 02:22:00,72.2,70.7,29.97,West,277,0.0,0.0,95,0.00,CLR,,0.00,WeatherDisplay:10.37,2013-08-23 07:22:00,
2013-08-23 02:27:00,72.1,70.6,29.97,West,277,0.0,0.0,95,0.00,CLR,,0.00,WeatherDisplay:10.37,2013-08-23 07:27:00,
2013-08-23 02:32:00,72.1,70.6,29.97,West,277,0.0,0.0,95,0.00,CLR,,0.00,WeatherDisplay:10.37,2013-08-23 07:32:00,
2013-08-23 02:37:00,72.1,70.6,29.97,West,277,0.0,0.0,95,0.00,CLR,,0.00,WeatherDisplay:10.37,2013-08-23 07:37:00,
2013-08-23 02:42:00,72.2,70.7,29.97,West,277,0.0,0.0,95,0.00,CLR,,0.00,WeatherDisplay:10.37,2013-08-23 07:42:00,
2013-08-23 02:47:00,72.2,70.7,29.97,West,277,0.0,0.0,95,0.00,CLR,,0.00,WeatherDisplay:10.37,2013-08-23 07:47:00,
2013-08-23 02:52:00,72.1,70.6,29.97,West,277,0.0,0.0,95,0.00,CLR,,0.00,WeatherDisplay:10.37,2013-08-23 07:52:00,
2013-08-23 02:57:00,72.2,70.7,29.97,West,277,0.0,0.0,95,0.00,CLR,,0.00,WeatherDisplay:10.37,2013-08-23 07:57:00,
2013-08-23 03:02:00,72.0,70.5,29.96,West,277,0.0,0.0,95,0.00,CLR,,0.00,WeatherDisplay:10.37,2013-08-23 08:02:00,
2013-08-23 03:07:00,71.9,70.4,29.97,West,277,0.0,0.0,95,0.00,CLR,,0.00,WeatherDisplay:10.37,2013-08-23 08:07:00,
2013-08-23 03:12:00,71.8,70.3,29.96,West,277,0.0,0.0,95,0.00,CLR,,0.00,WeatherDisplay:10.37,2013-08-23 08:12:00,
2013-08-23 03:17:00,71.7,70.2,29.97,West,277,0.0,0.0,95,0.00,CLR,,0.00,WeatherDisplay:10.37,2013-08-23 08:17:00,
2013-08-23 03:22:00,71.7,70.2,29.97,West,277,0.0,0.0,95,0.00,CLR,,0.00,WeatherDisplay:10.37,2013-08-23 08:22:00,
2013-08-23 03:27:00,71.6,70.1,29.97,West,277,0.0,0.0,95,0.00,CLR,,0.00,WeatherDisplay:10.37,2013-08-23 08:27:00,
2013-08-23 03:32:00,71.6,70.4,29.97,West,277,0.0,0.0,96,0.00,CLR,,0.00,WeatherDisplay:10.37,2013-08-23 08:32:00,
2013-08-23 03:37:00,71.5,70.3,29.97,West,277,0.0,0.0,96,0.00,CLR,,0.00,WeatherDisplay:10.37,2013-08-23 08:37:00,
2013-08-23 03:42:00,71.4,69.9,29.97,West,277,0.0,0.0,95,0.00,CLR,,0.00,WeatherDisplay:10.37,2013-08-23 08:42:00,
2013-08-23 03:47:00,71.4,69.9,29.97,West,277,0.0,0.0,95,0.00,CLR,,0.00,WeatherDisplay:10.37,2013-08-23 08:47:00,
2013-08-23 03:52:00,71.3,69.8,29.97,West,277,0.0,0.0,95,0.00,CLR,,0.00,WeatherDisplay:10.37,2013-08-23 08:52:00,
2013-08-23 03:57:00,71.2,69.7,29.97,West,277,0.0,0.0,95,0.00,CLR,,0.00,WeatherDisplay:10.37,2013-08-23 08:57:00,
2013-08-23 04:02:00,71.2,70.0,29.98,West,277,0.0,0.0,96,0.00,CLR,,0.00,WeatherDisplay:10.37,2013-08-23 09:02:00,
2013-08-23 04:07:00,71.1,69.9,29.98,West,277,0.0,0.0,96,0.00,CLR,,0.00,WeatherDisplay:10.37,2013-08-23 09:07:00,
2013-08-23 04:12:00,71.0,69.8,29.98,West,277,0.0,0.0,96,0.00,CLR,,0.00,WeatherDisplay:10.37,2013-08-23 09:12:00,
2013-08-23 04:17:00,71.0,69.8,29.98,West,277,0.0,0.0,96,0.00,CLR,,0.00,WeatherDisplay:10.37,2013-08-23 09:17:00,
2013-08-23 04:22:00,71.0,69.8,29.98,West,277,0.0,0.0,96,0.00,CLR,,0.00,WeatherDisplay:10.37,2013-08-23 09:22:00,
2013-08-23 04:27:00,70.9,69.7,29.98,West,277,0.0,0.0,96,0.00,CLR,,0.00,WeatherDisplay:10.37,2013-08-23 09:27:00,
2013-08-23 04:32:00,70.9,69.7,29.98,West,277,0.0,0.0,96,0.00,CLR,,0.00,WeatherDisplay:10.37,2013-08-23 09:32:00,
2013-08-23 04:37:00,70.9,69.7,29.98,West,277,0.0,0.0,96,0.00,CLR,,0.00,WeatherDisplay:10.37,2013-08-23 09:37:00,
2013-08-23 04:42:00,70.9,69.7,29.98,West,277,0.0,0.0,96,0.00,CLR,,0.00,WeatherDisplay:10.37,2013-08-23 09:42:00,
2013-08-23 04:47:00,71.0,69.8,29.98,West,277,0.0,0.0,96,0.00,CLR,,0.00,WeatherDisplay:10.37,2013-08-23 09:47:00,
2013-08-23 04:52:00,71.0,69.8,29.98,West,277,0.0,0.0,96,0.00,CLR,,0.00,WeatherDisplay:10.37,2013-08-23 09:52:00,
2013-08-23 04:57:00,70.8,69.3,29.98,West,277,0.0,0.0,95,0.00,CLR,,0.00,WeatherDisplay:10.37,2013-08-23 09:57:00,
2013-08-23 05:02:00,70.7,69.5,29.98,West,277,0.0,0.0,96,0.00,CLR,,0.00,WeatherDisplay:10.37,2013-08-23 10:02:00,
2013-08-23 05:07:00,70.7,69.5,29.98,West,277,0.0,0.0,96,0.00,CLR,,0.00,WeatherDisplay:10.37,2013-08-23 10:07:00,
2013-08-23 05:12:00,70.6,69.4,29.99,West,277,0.0,0.0,96,0.00,CLR,,0.00,WeatherDisplay:10.37,2013-08-23 10:12:00,
2013-08-23 05:17:00,70.5,69.3,29.99,West,277,0.0,0.0,96,0.00,CLR,,0.00,WeatherDisplay:10.37,2013-08-23 10:17:00,
2013-08-23 05:22:00,70.4,69.2,29.99,West,277,0.0,0.0,96,0.00,CLR,,0.00,WeatherDisplay:10.37,2013-08-23 10:22:00,
2013-08-23 05:27:00,70.2,69.0,29.99,West,277,0.0,0.0,96,0.00,CLR,,0.00,WeatherDisplay:10.37,2013-08-23 10:27:00,
2013-08-23 05:32:00,70.2,69.0,29.99,West,277,0.0,0.0,96,0.00,CLR,,0.00,WeatherDisplay:10.37,2013-08-23 10:32:00,
2013-08-23 05:37:00,70.2,69.0,29.99,West,277,0.0,0.0,96,0.00,CLR,,0.00,WeatherDisplay:10.37,2013-08-23 10:37:00,
2013-08-23 05:42:00,70.2,69.0,29.99,West,277,0.0,0.0,96,0.00,CLR,,0.00,WeatherDisplay:10.37,2013-08-23 10:42:00,
2013-08-23 05:47:00,70.2,69.0,29.98,West,277,0.0,0.0,96,0.00,CLR,,0.00,WeatherDisplay:10.37,2013-08-23 10:47:00,
2013-08-23 05:52:00,70.1,68.9,29.98,West,277,0.0,0.0,96,0.00,CLR,,0.00,WeatherDisplay:10.37,2013-08-23 10:52:00,
2013-08-23 05:57:00,70.1,68.9,29.98,West,277,0.0,0.0,96,0.00,CLR,,0.00,WeatherDisplay:10.37,2013-08-23 10:57:00,
2013-08-23 06:02:00,70.1,68.9,29.98,West,277,0.0,0.0,96,0.00,CLR,,0.00,WeatherDisplay:10.37,2013-08-23 11:02:00,
2013-08-23 06:07:00,70.1,68.9,29.99,West,277,0.0,0.0,96,0.00,CLR,,0.00,WeatherDisplay:10.37,2013-08-23 11:07:00,
2013-08-23 06:12:00,70.1,68.9,29.99,West,277,0.0,0.0,96,0.00,CLR,,0.00,WeatherDisplay:10.37,2013-08-23 11:12:00,
2013-08-23 06:17:00,70.2,69.0,29.99,West,277,0.0,0.0,96,0.00,CLR,,0.00,WeatherDisplay:10.37,2013-08-23 11:17:00,
2013-08-23 06:22:00,70.3,69.1,29.99,West,275,0.0,0.0,96,0.00,CLR,,0.00,WeatherDisplay:10.37,2013-08-23 11:22:00,
2013-08-23 06:27:00,70.4,69.5,30.00,West,275,0.0,0.0,97,0.00,CLR,,0.00,WeatherDisplay:10.37,2013-08-23 11:27:00,
2013-08-23 06:32:00,70.4,69.2,30.00,West,275,0.0,0.0,96,0.00,CLR,,0.00,WeatherDisplay:10.37,2013-08-23 11:32:00,
2013-08-23 06:37:00,70.4,69.5,30.00,West,275,0.0,0.0,97,0.00,CLR,,0.00,WeatherDisplay:10.37,2013-08-23 11:37:00,
2013-08-23 06:42:00,70.5,69.6,30.00,West,275,0.0,0.0,97,0.00,CLR,,0.00,WeatherDisplay:10.37,2013-08-23 11:42:00,
2013-08-23 06:47:00,70.7,69.8,30.00,West,275,0.0,0.0,97,0.00,CLR,,0.00,WeatherDisplay:10.37,2013-08-23 11:47:00,
2013-08-23 06:52:00,70.9,70.0,30.00,West,275,0.0,0.0,97,0.00,CLR,,0.00,WeatherDisplay:10.37,2013-08-23 11:52:00,
2013-08-23 06:58:00,70.9,70.0,30.00,West,275,0.0,0.0,97,0.00,CLR,,0.00,WeatherDisplay:10.37,2013-08-23 11:58:00,
2013-08-23 07:03:00,71.1,70.2,30.00,West,275,0.0,0.0,97,0.00,CLR,,0.00,WeatherDisplay:10.37,2013-08-23 12:03:00,
2013-08-23 07:08:00,71.4,70.5,30.00,West,275,0.0,0.0,97,0.00,CLR,,0.00,WeatherDisplay:10.37,2013-08-23 12:08:00,
2013-08-23 07:13:00,71.7,70.8,30.01,West,275,0.0,0.0,97,0.00,CLR,,0.00,WeatherDisplay:10.37,2013-08-23 12:13:00,
2013-08-23 07:18:00,72.1,71.5,30.01,West,275,0.0,0.0,98,0.00,CLR,,0.00,WeatherDisplay:10.37,2013-08-23 12:18:00,
2013-08-23 07:23:00,72.4,71.8,30.01,West,275,0.0,0.0,98,0.00,CLR,,0.00,WeatherDisplay:10.37,2013-08-23 12:23:00,
2013-08-23 07:28:00,72.6,72.0,30.01,West,275,0.0,0.0,98,0.00,CLR,,0.00,WeatherDisplay:10.37,2013-08-23 12:28:00,
2013-08-23 07:33:00,72.8,71.9,30.01,West,275,0.0,0.0,97,0.00,CLR,,0.00,WeatherDisplay:10.37,2013-08-23 12:33:00,
2013-08-23 07:38:00,73.0,72.1,30.01,West,275,0.0,0.0,97,0.00,CLR,,0.00,WeatherDisplay:10.37,2013-08-23 12:38:00,
2013-08-23 07:43:00,73.1,72.5,30.01,West,275,0.0,0.0,98,0.00,CLR,,0.00,WeatherDisplay:10.37,2013-08-23 12:43:00,
2013-08-23 07:48:00,73.4,72.8,30.01,West,275,0.0,0.0,98,0.00,CLR,,0.00,WeatherDisplay:10.37,2013-08-23 12:48:00,
2013-08-23 07:53:00,73.8,73.2,30.01,West,275,0.0,0.0,98,0.00,CLR,,0.00,WeatherDisplay:10.37,2013-08-23 12:53:00,
2013-08-23 07:58:00,74.0,73.4,30.01,West,275,0.0,0.0,98,0.00,CLR,,0.00,WeatherDisplay:10.37,2013-08-23 12:58:00,
2013-08-23 08:03:00,74.3,73.7,30.01,West,275,0.0,0.0,98,0.00,CLR,,0.00,WeatherDisplay:10.37,2013-08-23 13:03:00,
2013-08-23 08:08:00,74.5,73.9,30.02,West,275,0.0,0.0,98,0.00,CLR,,0.00,WeatherDisplay:10.37,2013-08-23 13:08:00,
2013-08-23 08:13:00,74.8,74.2,30.02,West,275,0.0,0.0,98,0.00,CLR,,0.00,WeatherDisplay:10.37,2013-08-23 13:13:00,
2013-08-23 08:18:00,75.2,74.6,30.02,West,275,0.0,0.0,98,0.00,CLR,,0.00,WeatherDisplay:10.37,2013-08-23 13:18:00,
2013-08-23 08:23:00,75.5,74.9,30.01,West,275,0.0,0.0,98,0.00,CLR,,0.00,WeatherDisplay:10.37,2013-08-23 13:23:00,
2013-08-23 08:28:00,75.6,75.0,30.01,West,275,0.0,0.0,98,0.00,CLR,,0.00,WeatherDisplay:10.37,2013-08-23 13:28:00,
2013-08-23 08:33:00,75.7,75.1,30.01,West,280,0.0,0.0,98,0.00,CLR,,0.00,WeatherDisplay:10.37,2013-08-23 13:33:00,
2013-08-23 08:38:00,75.8,75.2,30.01,WNW,283,0.0,0.0,98,0.00,CLR,,0.00,WeatherDisplay:10.37,2013-08-23 13:38:00,
2013-08-23 08:43:00,76.1,75.2,30.01,WNW,283,0.0,0.0,97,0.00,CLR,,0.00,WeatherDisplay:10.37,2013-08-23 13:43:00,
2013-08-23 08:48:00,76.0,75.1,30.01,WNW,283,1.1,0.0,97,0.00,CLR,,0.00,WeatherDisplay:10.37,2013-08-23 13:48:00,
2013-08-23 08:53:00,76.4,75.5,30.01,WNW,283,0.0,0.0,97,0.00,CLR,,0.00,WeatherDisplay:10.37,2013-08-23 13:53:00,
2013-08-23 08:58:00,76.9,75.7,30.01,WNW,283,0.0,0.0,96,0.00,CLR,,0.00,WeatherDisplay:10.37,2013-08-23 13:58:00,
2013-08-23 09:03:00,77.6,76.1,30.01,NNW,348,1.1,1.1,95,0.00,CLR,,0.00,WeatherDisplay:10.37,2013-08-23 14:03:00,
2013-08-23 09:08:00,78.3,76.4,30.01,North,11,0.0,0.0,94,0.00,CLR,,0.00,WeatherDisplay:10.37,2013-08-23 14:08:00,
2013-08-23 09:13:00,79.0,76.5,30.01,NW,311,3.5,0.0,92,0.00,CLR,,0.00,WeatherDisplay:10.37,2013-08-23 14:13:00,
2013-08-23 09:18:00,79.7,76.2,30.01,NW,311,0.0,0.0,89,0.00,CLR,,0.00,WeatherDisplay:10.37,2013-08-23 14:18:00,
2013-08-23 09:23:00,80.2,76.0,30.01,NW,316,0.0,0.0,87,0.00,CLR,,0.00,WeatherDisplay:10.37,2013-08-23 14:23:00,
2013-08-23 09:28:00,80.6,75.3,30.01,NNW,331,0.0,0.0,84,0.00,CLR,,0.00,WeatherDisplay:10.37,2013-08-23 14:28:00,
2013-08-23 09:33:00,80.9,74.9,30.02,North,9,1.1,1.1,82,0.00,CLR,,0.00,WeatherDisplay:10.37,2013-08-23 14:33:00,
2013-08-23 09:38:00,81.1,75.1,30.02,North,11,0.0,0.0,82,0.00,CLR,,0.00,WeatherDisplay:10.37,2013-08-23 14:38:00,
2013-08-23 09:43:00,81.5,75.5,30.02,NNE,14,0.0,0.0,82,0.00,CLR,,0.00,WeatherDisplay:10.37,2013-08-23 14:43:00,
2013-08-23 09:48:00,81.9,75.9,30.02,NNE,14,0.0,0.0,82,0.00,CLR,,0.00,WeatherDisplay:10.37,2013-08-23 14:48:00,
2013-08-23 09:53:00,82.3,75.5,30.02,NNE,26,0.0,0.0,80,0.00,CLR,,0.00,WeatherDisplay:10.37,2013-08-23 14:53:00,
2013-08-23 09:58:00,82.4,74.8,30.02,NNE,26,1.1,0.0,78,0.00,CLR,,0.00,WeatherDisplay:10.37,2013-08-23 14:58:00,
2013-08-23 10:03:00,82.4,74.5,30.02,NNE,26,0.0,0.0,77,0.00,CLR,,0.00,WeatherDisplay:10.37,2013-08-23 15:03:00,
2013-08-23 10:08:00,82.7,75.5,30.02,NNE,26,0.0,0.0,79,0.00,CLR,,0.00,WeatherDisplay:10.37,2013-08-23 15:08:00,
2013-08-23 10:13:00,83.0,75.8,30.02,NNE,26,0.0,0.0,79,0.00,CLR,,0.00,WeatherDisplay:10.37,2013-08-23 15:13:00,
2013-08-23 10:18:00,83.3,75.3,30.02,NNE,26,0.0,0.0,77,0.00,CLR,,0.00,WeatherDisplay:10.37,2013-08-23 15:18:00,
2013-08-23 10:23:00,83.7,76.5,30.02,NNE,25,0.0,0.0,79,0.00,CLR,,0.00,WeatherDisplay:10.37,2013-08-23 15:23:00,
2013-08-23 10:28:00,84.0,76.0,30.02,NNE,12,0.0,0.0,77,0.00,CLR,,0.00,WeatherDisplay:10.37,2013-08-23 15:28:00,
2013-08-23 10:33:00,84.1,75.3,30.02,NNE,12,0.0,0.0,75,0.00,CLR,,0.00,WeatherDisplay:10.37,2013-08-23 15:33:00,
2013-08-23 10:38:00,84.4,76.4,30.02,NNE,12,0.0,0.0,77,0.00,CLR,,0.00,WeatherDisplay:10.37,2013-08-23 15:38:00,
2013-08-23 10:43:00,84.6,75.8,30.02,NNE,12,0.0,0.0,75,0.00,CLR,,0.00,WeatherDisplay:10.37,2013-08-23 15:43:00,
2013-08-23 10:48:00,84.9,75.7,30.02,NNE,12,1.1,0.0,74,0.00,CLR,,0.00,WeatherDisplay:10.37,2013-08-23 15:48:00,
2013-08-23 10:53:00,85.0,75.4,30.01,NNE,12,1.1,1.1,73,0.00,CLR,,0.00,WeatherDisplay:10.37,2013-08-23 15:53:00,
2013-08-23 10:58:00,85.5,76.3,30.02,NNE,12,0.0,0.0,74,0.00,CLR,,0.00,WeatherDisplay:10.37,2013-08-23 15:58:00,
2013-08-23 11:03:00,85.8,75.7,30.01,NNW,329,0.0,0.0,72,0.00,CLR,,0.00,WeatherDisplay:10.37,2013-08-23 16:03:00,
2013-08-23 11:08:00,86.1,76.0,30.01,NNW,329,0.0,0.0,72,0.00,CLR,,0.00,WeatherDisplay:10.37,2013-08-23 16:08:00,
2013-08-23 11:13:00,86.2,76.1,30.01,NNW,327,0.0,0.0,72,0.00,CLR,,0.00,WeatherDisplay:10.37,2013-08-23 16:13:00,
2013-08-23 11:18:00,86.1,74.3,30.01,NNW,327,0.0,0.0,68,0.00,CLR,,0.00,WeatherDisplay:10.37,2013-08-23 16:18:00,
2013-08-23 11:23:00,86.2,74.8,30.01,NW,326,0.0,0.0,69,0.00,CLR,,0.00,WeatherDisplay:10.37,2013-08-23 16:23:00,
2013-08-23 11:28:00,86.5,76.0,30.01,North,5,0.0,0.0,71,0.00,CLR,,0.00,WeatherDisplay:10.37,2013-08-23 16:28:00,
2013-08-23 11:33:00,86.6,75.6,30.01,North,5,1.0,1.0,70,0.00,CLR,,0.00,WeatherDisplay:10.37,2013-08-23 16:33:00,
2013-08-23 11:38:00,86.6,75.6,30.01,WSW,244,2.0,2.0,70,0.00,CLR,,0.00,WeatherDisplay:10.37,2013-08-23 16:38:00,
2013-08-23 11:43:00,86.5,76.0,30.01,NW,308,0.0,0.0,71,0.00,CLR,,0.00,WeatherDisplay:10.37,2013-08-23 16:43:00,
2013-08-23 11:48:00,86.4,76.3,30.01,WNW,300,1.1,1.1,72,0.00,CLR,,0.00,WeatherDisplay:10.37,2013-08-23 16:48:00,
2013-08-23 11:53:00,87.0,77.7,30.00,WSW,254,3.5,3.5,74,0.00,CLR,,0.00,WeatherDisplay:10.37,2013-08-23 16:53:00,
2013-08-23 11:58:00,87.5,78.2,30.00,WSW,257,3.5,3.5,74,0.00,CLR,,0.00,WeatherDisplay:10.37,2013-08-23 16:58:00,
2013-08-23 12:03:00,87.9,77.3,30.00,WSW,257,1.1,0.0,71,0.00,CLR,,0.00,WeatherDisplay:10.37,2013-08-23 17:03:00,
2013-08-23 12:08:00,88.0,76.5,30.00,NW,319,3.5,3.5,69,0.00,CLR,,0.00,WeatherDisplay:10.37,2013-08-23 17:08:00,
2013-08-23 12:13:00,88.0,76.5,30.00,NW,319,1.1,0.0,69,0.00,CLR,,0.00,WeatherDisplay:10.37,2013-08-23 17:13:00,
2013-08-23 12:18:00,87.9,76.0,30.00,ESE,105,0.0,0.0,68,0.00,CLR,,0.00,WeatherDisplay:10.37,2013-08-23 17:18:00,
2013-08-23 12:23:00,87.7,76.3,30.00,East,79,1.1,0.0,69,0.00,CLR,,0.00,WeatherDisplay:10.37,2013-08-23 17:23:00,
2013-08-23 12:28:00,87.4,76.4,30.00,NW,324,1.1,1.1,70,0.00,CLR,,0.00,WeatherDisplay:10.37,2013-08-23 17:28:00,
2013-08-23 12:33:00,87.4,76.8,30.00,NW,313,0.0,0.0,71,0.00,CLR,,0.00,WeatherDisplay:10.37,2013-08-23 17:33:00,
2013-08-23 12:38:00,87.6,77.5,30.00,NW,309,4.0,4.0,72,0.00,CLR,,0.00,WeatherDisplay:10.37,2013-08-23 17:38:00,
2013-08-23 12:43:00,88.0,77.0,30.00,North,355,4.6,4.6,70,0.00,CLR,,0.00,WeatherDisplay:10.37,2013-08-23 17:43:00,
2013-08-23 12:48:00,88.1,77.9,29.99,WSW,250,2.3,2.3,72,0.00,CLR,,0.00,WeatherDisplay:10.37,2013-08-23 17:48:00,
2013-08-23 12:53:00,88.4,78.2,29.99,West,269,3.5,3.5,72,0.00,CLR,,0.00,WeatherDisplay:10.37,2013-08-23 17:53:00,
2013-08-23 12:59:00,88.4,76.9,29.99,West,273,0.0,0.0,69,0.00,CLR,,0.00,WeatherDisplay:10.37,2013-08-23 17:59:00,
2013-08-23 13:04:00,88.0,76.1,30.00,West,273,0.0,0.0,68,0.00,CLR,,0.00,WeatherDisplay:10.37,2013-08-23 18:04:00,
2013-08-23 13:09:00,87.3,76.3,29.99,North,5,0.0,0.0,70,0.00,CLR,,0.00,WeatherDisplay:10.37,2013-08-23 18:09:00,
2013-08-23 13:14:00,86.9,76.8,29.99,North,355,0.0,0.1,72,0.00,CLR,,0.00,WeatherDisplay:10.37,2013-08-23 18:14:00,
2013-08-23 13:19:00,87.1,77.4,29.99,North,355,0.0,0.0,73,0.00,CLR,,0.00,WeatherDisplay:10.37,2013-08-23 18:19:00,
2013-08-23 13:24:00,87.4,76.8,29.99,North,355,0.0,0.0,71,0.00,CLR,,0.00,WeatherDisplay:10.37,2013-08-23 18:24:00,
2013-08-23 13:29:00,87.6,77.5,29.99,North,355,0.0,0.0,72,0.00,CLR,,0.00,WeatherDisplay:10.37,2013-08-23 18:29:00,
2013-08-23 13:34:00,87.5,76.5,29.99,North,355,0.0,0.0,70,0.00,CLR,,0.00,WeatherDisplay:10.37,2013-08-23 18:34:00,
2013-08-23 13:39:00,87.5,76.9,29.99,North,355,0.0,0.0,71,0.00,CLR,,0.00,WeatherDisplay:10.37,2013-08-23 18:39:00,
2013-08-23 13:44:00,87.8,77.2,29.98,WNW,299,1.1,0.0,71,0.00,CLR,,0.00,WeatherDisplay:10.37,2013-08-23 18:44:00,
2013-08-23 13:49:00,88.1,77.1,29.98,NW,304,0.0,0.1,70,0.00,CLR,,0.00,WeatherDisplay:10.37,2013-08-23 18:49:00,
2013-08-23 13:54:00,87.8,75.5,29.98,NW,304,0.0,0.0,67,0.00,CLR,,0.00,WeatherDisplay:10.37,2013-08-23 18:54:00,
2013-08-23 13:59:00,87.5,76.1,29.97,NW,304,0.0,0.0,69,0.00,CLR,,0.00,WeatherDisplay:10.37,2013-08-23 18:59:00,
2013-08-23 14:04:00,87.0,76.0,29.97,NW,304,0.0,0.0,70,0.00,CLR,,0.00,WeatherDisplay:10.37,2013-08-23 19:04:00,
2013-08-23 14:09:00,86.6,75.6,29.97,NW,304,0.0,0.0,70,0.00,CLR,,0.00,WeatherDisplay:10.37,2013-08-23 19:09:00,
2013-08-23 14:14:00,86.6,76.5,29.97,NW,304,0.0,0.0,72,0.00,CLR,,0.00,WeatherDisplay:10.37,2013-08-23 19:14:00,
2013-08-23 14:19:00,86.9,77.2,29.97,NW,304,0.0,0.0,73,0.00,CLR,,0.00,WeatherDisplay:10.37,2013-08-23 19:19:00,
2013-08-23 14:24:00,87.3,76.7,29.96,NW,305,0.0,0.0,71,0.00,CLR,,0.00,WeatherDisplay:10.37,2013-08-23 19:24:00,
2013-08-23 14:29:00,87.2,75.8,29.96,North,5,0.0,0.0,69,0.00,CLR,,0.00,WeatherDisplay:10.37,2013-08-23 19:29:00,
2013-08-23 14:34:00,86.8,75.8,29.96,North,5,0.0,0.0,70,0.00,CLR,,0.00,WeatherDisplay:10.37,2013-08-23 19:34:00,
2013-08-23 14:39:00,86.2,76.1,29.96,North,5,0.0,0.0,72,0.00,CLR,,0.00,WeatherDisplay:10.37,2013-08-23 19:39:00,
2013-08-23 14:44:00,86.1,78.0,29.96,North,360,0.0,0.0,77,0.00,CLR,,0.00,WeatherDisplay:10.37,2013-08-23 19:44:00,
2013-08-23 14:49:00,85.9,78.2,29.96,SW,236,2.3,2.3,78,0.00,CLR,,0.00,WeatherDisplay:10.37,2013-08-23 19:49:00,
2013-08-23 14:54:00,85.6,77.6,29.96,SW,232,3.5,3.5,77,0.00,CLR,,0.00,WeatherDisplay:10.37,2013-08-23 19:54:00,
2013-08-23 14:59:00,85.0,76.2,29.96,WSW,242,3.5,3.5,75,0.00,CLR,,0.00,WeatherDisplay:10.37,2013-08-23 19:59:00,
2013-08-23 15:04:00,84.2,75.0,29.96,SW,232,0.0,0.0,74,0.00,CLR,,0.00,WeatherDisplay:10.37,2013-08-23 20:04:00,
2013-08-23 15:09:00,83.7,75.3,29.96,SW,232,0.0,0.0,76,0.00,CLR,,0.00,WeatherDisplay:10.37,2013-08-23 20:09:00,
2013-08-23 15:14:00,83.3,75.7,29.96,SW,232,0.0,0.0,78,0.00,CLR,,0.00,WeatherDisplay:10.37,2013-08-23 20:14:00,
2013-08-23 15:19:00,82.8,75.2,29.95,WSW,254,3.5,3.5,78,0.00,CLR,,0.00,WeatherDisplay:10.37,2013-08-23 20:19:00,
2013-08-23 15:24:00,82.1,74.6,29.95,WSW,237,2.3,2.3,78,0.00,CLR,,0.00,WeatherDisplay:10.37,2013-08-23 20:24:00,
2013-08-23 15:29:00,81.6,74.5,29.96,West,260,4.6,4.6,79,0.00,CLR,,0.00,WeatherDisplay:10.37,2013-08-23 20:29:00,
2013-08-23 15:34:00,81.1,74.0,29.95,WSW,244,1.1,1.1,79,0.00,CLR,,0.00,WeatherDisplay:10.37,2013-08-23 20:34:00,
2013-08-23 15:39:00,80.9,73.8,29.94,WSW,244,0.0,0.0,79,0.00,CLR,,0.00,WeatherDisplay:10.37,2013-08-23 20:39:00,
2013-08-23 15:44:00,80.7,74.7,29.95,WSW,244,0.0,0.0,82,0.00,CLR,,0.00,WeatherDisplay:10.37,2013-08-23 20:44:00,
2013-08-23 15:49:00,80.5,74.9,29.96,SW,217,3.5,3.5,83,0.00,CLR,,0.00,WeatherDisplay:10.37,2013-08-23 20:49:00,
2013-08-23 15:54:00,80.0,74.0,29.97,WSW,245,3.5,3.5,82,0.00,CLR,,0.00,WeatherDisplay:10.37,2013-08-23 20:54:00,
2013-08-23 15:59:00,79.7,73.7,29.96,WNW,292,1.1,1.1,82,0.00,CLR,,0.00,WeatherDisplay:10.37,2013-08-23 20:59:00,
2013-08-23 16:04:00,79.5,73.5,29.96,WNW,292,0.0,0.0,82,0.00,CLR,,0.00,WeatherDisplay:10.37,2013-08-23 21:04:00,
2013-08-23 16:09:00,79.6,74.0,29.96,WNW,292,1.1,1.1,83,0.00,CLR,,0.00,WeatherDisplay:10.37,2013-08-23 21:09:00,
2013-08-23 16:14:00,79.6,74.3,29.96,WSW,250,1.1,1.1,84,0.00,CLR,,0.00,WeatherDisplay:10.37,2013-08-23 21:14:00,
2013-08-23 16:19:00,79.8,74.9,29.96,West,268,5.8,5.8,85,0.00,CLR,,0.00,WeatherDisplay:10.37,2013-08-23 21:19:00,
2013-08-23 16:24:00,80.6,75.3,29.95,SW,228,5.8,5.8,84,0.00,CLR,,0.00,WeatherDisplay:10.37,2013-08-23 21:24:00,
2013-08-23 16:29:00,81.7,76.0,29.96,SW,236,3.5,3.5,83,0.00,CLR,,0.00,WeatherDisplay:10.37,2013-08-23 21:29:00,
2013-08-23 16:34:00,82.8,76.7,29.96,WSW,248,3.5,3.5,82,0.00,CLR,,0.00,WeatherDisplay:10.37,2013-08-23 21:34:00,
2013-08-23 16:39:00,83.8,76.6,29.96,WNW,297,3.5,3.5,79,0.00,CLR,,0.00,WeatherDisplay:10.37,2013-08-23 21:39:00,
2013-08-23 16:44:00,84.4,76.8,29.96,WNW,297,1.1,0.0,78,0.00,CLR,,0.00,WeatherDisplay:10.37,2013-08-23 21:44:00,
2013-08-23 16:49:00,85.3,78.4,29.96,WSW,242,4.0,4.0,80,0.00,CLR,,0.00,WeatherDisplay:10.37,2013-08-23 21:49:00,
2013-08-23 16:54:00,86.4,78.3,29.96,WSW,255,4.6,4.6,77,0.00,CLR,,0.00,WeatherDisplay:10.37,2013-08-23 21:54:00,
2013-08-23 16:59:00,86.8,77.1,29.96,NNW,328,3.5,3.5,73,0.00,CLR,,0.00,WeatherDisplay:10.37,2013-08-23 21:59:00,
2013-08-23 17:04:00,87.1,78.6,29.96,SW,227,3.5,3.5,76,0.00,CLR,,0.00,WeatherDisplay:10.37,2013-08-23 22:04:00,
2013-08-23 17:09:00,87.6,78.7,29.96,West,265,3.5,3.5,75,0.00,CLR,,0.00,WeatherDisplay:10.37,2013-08-23 22:09:00,
2013-08-23 17:14:00,88.0,78.7,29.96,WSW,256,2.3,2.3,74,0.00,CLR,,0.00,WeatherDisplay:10.37,2013-08-23 22:14:00,
2013-08-23 17:19:00,88.0,77.4,29.96,SW,232,0.0,0.0,71,0.00,CLR,,0.00,WeatherDisplay:10.37,2013-08-23 22:19:00,
2013-08-23 17:24:00,87.8,77.2,29.96,SSW,196,0.0,0.0,71,0.00,CLR,,0.00,WeatherDisplay:10.37,2013-08-23 22:24:00,
2013-08-23 17:29:00,87.5,77.4,29.95,ENE,58,0.0,0.0,72,0.00,CLR,,0.00,WeatherDisplay:10.37,2013-08-23 22:29:00,
2013-08-23 17:34:00,87.1,77.0,29.95,ENE,58,0.0,0.0,72,0.00,CLR,,0.00,WeatherDisplay:10.37,2013-08-23 22:34:00,
2013-08-23 17:39:00,86.9,77.6,29.95,ENE,58,0.0,0.0,74,0.00,CLR,,0.00,WeatherDisplay:10.37,2013-08-23 22:39:00,
2013-08-23 17:44:00,87.2,78.3,29.95,West,267,0.0,0.0,75,0.00,CLR,,0.00,WeatherDisplay:10.37,2013-08-23 22:44:00,
2013-08-23 17:49:00,87.7,78.0,29.95,West,267,0.0,0.1,73,0.00,CLR,,0.00,WeatherDisplay:10.37,2013-08-23 22:49:00,
2013-08-23 17:54:00,88.2,78.0,29.95,West,267,2.3,2.3,72,0.00,CLR,,0.00,WeatherDisplay:10.37,2013-08-23 22:54:00,
2013-08-23 17:59:00,88.8,78.6,29.95,West,267,0.0,0.0,72,0.00,CLR,,0.00,WeatherDisplay:10.37,2013-08-23 22:59:00,
2013-08-23 18:04:00,89.2,78.6,29.95,West,267,0.0,0.0,71,0.00,CLR,,0.00,WeatherDisplay:10.37,2013-08-23 23:04:00,
2013-08-23 18:09:00,89.3,77.8,29.96,West,267,0.0,0.0,69,0.00,CLR,,0.00,WeatherDisplay:10.37,2013-08-23 23:09:00,
2013-08-23 18:14:00,89.2,77.7,29.96,West,267,0.0,0.0,69,0.00,CLR,,0.00,WeatherDisplay:10.37,2013-08-23 23:14:00,
2013-08-23 18:19:00,88.0,77.0,29.96,West,267,0.0,0.0,70,0.00,CLR,,0.00,WeatherDisplay:10.37,2013-08-23 23:19:00,
2013-08-23 18:24:00,86.6,76.5,29.97,West,267,0.0,0.0,72,0.00,CLR,,0.00,WeatherDisplay:10.37,2013-08-23 23:24:00,
2013-08-23 18:29:00,85.6,76.8,29.96,West,267,1.1,0.0,75,0.00,CLR,,0.00,WeatherDisplay:10.37,2013-08-23 23:29:00,
2013-08-23 18:34:00,85.1,77.1,29.97,West,267,0.0,0.0,77,0.00,CLR,,0.00,WeatherDisplay:10.37,2013-08-23 23:34:00,
2013-08-23 18:39:00,84.9,77.3,29.97,West,267,0.0,0.0,78,0.00,CLR,,0.00,WeatherDisplay:10.37,2013-08-23 23:39:00,
2013-08-23 18:45:00,84.6,77.0,29.97,West,267,0.0,0.0,78,0.00,CLR,,0.00,WeatherDisplay:10.37,2013-08-23 23:45:00,
2013-08-23 18:50:00,84.5,77.3,29.97,West,267,0.0,0.0,79,0.00,CLR,,0.00,WeatherDisplay:10.37,2013-08-23 23:50:00,
2013-08-23 18:55:00,84.3,77.5,29.97,West,267,0.0,0.0,80,0.00,CLR,,0.00,WeatherDisplay:10.37,2013-08-23 23:55:00,
2013-08-23 19:00:00,84.2,77.4,29.97,West,267,0.0,0.0,80,0.00,CLR,,0.00,WeatherDisplay:10.37,2013-08-24 00:00:00,
2013-08-23 19:05:00,84.2,77.7,29.97,West,267,0.0,0.0,81,0.00,CLR,,0.00,WeatherDisplay:10.37,2013-08-24 00:05:00,
2013-08-23 19:10:00,84.2,77.7,29.97,West,267,0.0,0.0,81,0.00,CLR,,0.00,WeatherDisplay:10.37,2013-08-24 00:10:00,
2013-08-23 19:15:00,84.0,77.5,29.97,West,267,0.0,0.0,81,0.00,CLR,,0.00,WeatherDisplay:10.37,2013-08-24 00:15:00,
2013-08-23 19:20:00,83.8,77.3,29.97,West,267,0.0,0.0,81,0.00,CLR,,0.00,WeatherDisplay:10.37,2013-08-24 00:20:00,
2013-08-23 19:25:00,83.5,77.1,29.97,West,267,0.0,0.0,81,0.00,CLR,,0.00,WeatherDisplay:10.37,2013-08-24 00:25:00,
2013-08-23 19:30:00,83.0,76.9,29.97,West,267,0.0,0.0,82,0.00,CLR,,0.00,WeatherDisplay:10.37,2013-08-24 00:30:00,
2013-08-23 19:35:00,82.4,76.3,29.97,West,267,0.0,0.0,82,0.00,CLR,,0.00,WeatherDisplay:10.37,2013-08-24 00:35:00,
2013-08-23 19:40:00,81.9,76.2,29.97,West,267,0.0,0.0,83,0.00,CLR,,0.00,WeatherDisplay:10.37,2013-08-24 00:40:00,
2013-08-23 19:45:00,81.7,76.0,29.97,West,267,0.0,0.0,83,0.00,CLR,,0.00,WeatherDisplay:10.37,2013-08-24 00:45:00,
2013-08-23 19:50:00,81.5,76.2,29.97,West,267,0.0,0.0,84,0.00,CLR,,0.00,WeatherDisplay:10.37,2013-08-24 00:50:00,
2013-08-23 19:55:00,81.3,75.6,29.98,West,267,0.0,0.0,83,0.00,CLR,,0.00,WeatherDisplay:10.37,2013-08-24 00:55:00,
2013-08-23 20:00:00,81.0,75.3,29.98,West,267,0.0,0.0,83,0.00,CLR,,0.00,WeatherDisplay:10.37,2013-08-24 01:00:00,
2013-08-23 20:05:00,80.7,75.1,29.98,West,267,0.0,0.0,83,0.00,CLR,,0.00,WeatherDisplay:10.37,2013-08-24 01:05:00,
2013-08-23 20:10:00,80.4,75.1,29.98,West,267,0.0,0.0,84,0.00,CLR,,0.00,WeatherDisplay:10.37,2013-08-24 01:10:00,
2013-08-23 20:15:00,80.1,75.2,29.98,West,267,0.0,0.0,85,0.00,CLR,,0.00,WeatherDisplay:10.37,2013-08-24 01:15:00,
2013-08-23 20:20:00,79.8,74.9,29.98,West,267,0.0,0.0,85,0.00,CLR,,0.00,WeatherDisplay:10.37,2013-08-24 01:20:00,
2013-08-23 20:25:00,79.4,74.5,29.98,West,267,0.0,0.0,85,0.00,CLR,,0.00,WeatherDisplay:10.37,2013-08-24 01:25:00,
2013-08-23 20:30:00,79.2,74.6,29.98,West,267,0.0,0.0,86,0.00,CLR,,0.00,WeatherDisplay:10.37,2013-08-24 01:30:00,
2013-08-23 20:35:00,78.9,74.4,29.98,West,267,0.0,0.0,86,0.00,CLR,,0.00,WeatherDisplay:10.37,2013-08-24 01:35:00,
2013-08-23 20:40:00,78.6,74.1,29.99,West,267,0.0,0.0,86,0.00,CLR,,0.00,WeatherDisplay:10.37,2013-08-24 01:40:00,
2013-08-23 20:45:00,78.3,73.8,29.99,West,267,0.0,0.0,86,0.00,CLR,,0.00,WeatherDisplay:10.37,2013-08-24 01:45:00,
2013-08-23 20:50:00,78.1,73.9,29.99,West,267,0.0,0.0,87,0.00,CLR,,0.00,WeatherDisplay:10.37,2013-08-24 01:50:00,
2013-08-23 20:55:00,77.8,74.0,29.99,West,267,0.0,0.0,88,0.00,CLR,,0.00,WeatherDisplay:10.37,2013-08-24 01:55:00,
2013-08-23 21:00:00,77.4,73.6,29.99,West,267,0.0,0.0,88,0.00,CLR,,0.00,WeatherDisplay:10.37,2013-08-24 02:00:00,
2013-08-23 21:05:00,77.1,73.6,30.00,West,267,0.0,0.0,89,0.00,CLR,,0.00,WeatherDisplay:10.37,2013-08-24 02:05:00,
2013-08-23 21:10:00,76.9,73.4,30.00,West,267,0.0,0.0,89,0.00,CLR,,0.00,WeatherDisplay:10.37,2013-08-24 02:10:00,
2013-08-23 21:15:00,76.6,73.1,30.00,West,267,0.0,0.0,89,0.00,CLR,,0.00,WeatherDisplay:10.37,2013-08-24 02:15:00,
2013-08-23 21:20:00,76.4,73.2,30.00,West,267,0.0,0.0,90,0.00,CLR,,0.00,WeatherDisplay:10.37,2013-08-24 02:20:00,
2013-08-23 21:25:00,76.1,73.0,30.00,West,267,0.0,0.0,90,0.00,CLR,,0.00,WeatherDisplay:10.37,2013-08-24 02:25:00,
2013-08-23 21:30:00,75.8,72.7,30.00,West,267,0.0,0.0,90,0.00,CLR,,0.00,WeatherDisplay:10.37,2013-08-24 02:30:00,
2013-08-23 21:35:00,75.6,72.8,30.00,West,267,0.0,0.0,91,0.00,CLR,,0.00,WeatherDisplay:10.37,2013-08-24 02:35:00,
2013-08-23 21:40:00,75.5,72.7,30.00,West,267,0.0,0.0,91,0.00,CLR,,0.00,WeatherDisplay:10.37,2013-08-24 02:40:00,
2013-08-23 21:45:00,75.4,72.6,30.01,West,267,0.0,0.0,91,0.00,CLR,,0.00,WeatherDisplay:10.37,2013-08-24 02:45:00,
2013-08-23 21:50:00,75.3,72.5,30.00,West,267,0.0,0.0,91,0.00,CLR,,0.00,WeatherDisplay:10.37,2013-08-24 02:50:00,
2013-08-23 21:55:00,75.0,72.5,30.00,West,267,0.0,0.0,92,0.00,CLR,,0.00,WeatherDisplay:10.37,2013-08-24 02:55:00,
2013-08-23 22:00:00,74.8,72.0,30.00,West,267,0.0,0.0,91,0.00,CLR,,0.00,WeatherDisplay:10.37,2013-08-24 03:00:00,
2013-08-23 22:05:00,74.6,72.1,30.01,West,267,0.0,0.0,92,0.00,CLR,,0.00,WeatherDisplay:10.37,2013-08-24 03:05:00,
2013-08-23 22:10:00,74.4,71.9,30.01,West,267,0.0,0.0,92,0.00,CLR,,0.00,WeatherDisplay:10.37,2013-08-24 03:10:00,
2013-08-23 22:15:00,74.2,71.7,30.01,West,267,0.0,0.0,92,0.00,CLR,,0.00,WeatherDisplay:10.37,2013-08-24 03:15:00,
2013-08-23 22:20:00,74.1,71.6,30.01,West,267,0.0,0.0,92,0.00,CLR,,0.00,WeatherDisplay:10.37,2013-08-24 03:20:00,
2013-08-23 22:25:00,73.9,71.7,30.01,West,267,0.0,0.0,93,0.00,CLR,,0.00,WeatherDisplay:10.37,2013-08-24 03:25:00,
2013-08-23 22:30:00,73.8,71.6,30.01,West,267,0.0,0.0,93,0.00,CLR,,0.00,WeatherDisplay:10.37,2013-08-24 03:30:00,
2013-08-23 22:36:00,73.7,71.5,30.01,West,267,0.0,0.0,93,0.00,CLR,,0.00,WeatherDisplay:10.37,2013-08-24 03:36:00,
2013-08-23 22:41:00,73.6,71.4,30.01,West,267,0.0,0.0,93,0.00,CLR,,0.00,WeatherDisplay:10.37,2013-08-24 03:41:00,
2013-08-23 22:46:00,73.5,71.4,30.01,West,267,0.0,0.0,93,0.00,CLR,,0.00,WeatherDisplay:10.37,2013-08-24 03:46:00,
2013-08-23 22:51:00,73.3,71.2,30.01,West,267,0.0,0.0,93,0.00,CLR,,0.00,WeatherDisplay:10.37,2013-08-24 03:51:00,
2013-08-23 22:56:00,73.2,71.4,30.01,West,267,0.0,0.0,94,0.00,CLR,,0.00,WeatherDisplay:10.37,2013-08-24 03:56:00,
2013-08-23 23:01:00,73.3,71.5,30.01,West,267,0.0,0.0,94,0.00,CLR,,0.00,WeatherDisplay:10.37,2013-08-24 04:01:00,
2013-08-23 23:06:00,73.2,71.4,30.01,West,267,0.0,0.0,94,0.00,CLR,,0.00,WeatherDisplay:10.37,2013-08-24 04:06:00,
2013-08-23 23:11:00,73.1,71.3,30.01,West,267,0.0,0.0,94,0.00,CLR,,0.00,WeatherDisplay:10.37,2013-08-24 04:11:00,
2013-08-23 23:16:00,73.0,71.2,30.01,West,267,0.0,0.0,94,0.00,CLR,,0.00,WeatherDisplay:10.37,2013-08-24 04:16:00,
2013-08-23 23:21:00,73.1,71.3,30.01,West,267,0.0,0.0,94,0.00,CLR,,0.00,WeatherDisplay:10.37,2013-08-24 04:21:00,
2013-08-23 23:26:00,73.2,71.4,30.01,West,267,0.0,0.0,94,0.00,CLR,,0.00,WeatherDisplay:10.37,2013-08-24 04:26:00,
2013-08-23 23:31:00,73.1,71.3,30.01,West,267,0.0,0.0,94,0.00,CLR,,0.00,WeatherDisplay:10.37,2013-08-24 04:31:00,
2013-08-23 23:37:00,73.4,71.9,30.01,West,267,0.0,0.0,95,0.00,CLR,,0.00,WeatherDisplay:10.37,2013-08-24 04:37:00,
2013-08-23 23:42:00,73.7,72.2,30.01,West,267,0.0,0.0,95,0.00,CLR,,0.00,WeatherDisplay:10.37,2013-08-24 04:42:00,
2013-08-23 23:47:00,73.9,72.4,30.01,West,267,0.0,0.0,95,0.00,CLR,,0.00,WeatherDisplay:10.37,2013-08-24 04:47:00,
2013-08-23 23:52:00,74.0,72.5,30.01,West,267,0.0,0.0,95,0.00,CLR,,0.00,WeatherDisplay:10.37,2013-08-24 04:52:00,
2013-08-23 23:57:00,74.0,72.2,30.01,West,267,0.0,0.0,94,0.00,CLR,,0.00,WeatherDisplay:10.37,2013-08-24 04:57:00,